Miscellaneous Local Product
Issued by NWS Hastings, NE

Home | Current Version | Previous Version | Text Only | Print | Product List | Glossary On
Versions: 1 2 3 4 5 6 7 8 9 10 11 12 13 14 15 16 17 18 19 20 21 22 23 24 25 26 27 28 29 30 31 32 33 34 35 36 37 38 39 40 41 42 43 44 45 46 47 48 49 50
000
AXUS43 KGID 300902
MISGRI

GID CWA HOURLY WEATHER ROUNDUP
NATIONAL WEATHER SERVICE HASTINGS NE
400 AM CDT TUE AUG 30 2016

NOTE: "FAIR" INDICATES FEW OR NO CLOUDS BELOW 12,000 FEET WITH NO
SIGNIFICANT WEATHER AND/OR OBSTRUCTIONS TO VISIBILITY.

...SOUTH CENTRAL NEBRASKA...

CITY           SKY/WX    TMP DP  RH WIND       PRES   REMARKS
GRAND ISLAND   CLOUDY    66  65  96 S3        30.21R
HASTINGS       MOCLDY    67  65  93 SW3       30.21S
KEARNEY        CLOUDY    66  64  94 SE7       30.20F
ORD            CLOUDY    68  65  90 E7        30.20S
YORK           FOG       66  66 100 CALM      30.19R VSB 1
AURORA         PTCLDY    65  65 100 CALM      30.20R FOG
LEXINGTON      CLOUDY    67  65  94 NW3       30.21S
HOLDREGE       CLOUDY    67  65  95 S3        30.21S
HEBRON         LGT RAIN  68  67  98 CALM      30.17F

...NEBRASKA PANHANDLE...

CITY           SKY/WX    TMP DP  RH WIND       PRES   REMARKS
CHADRON        CLEAR     57  54  89 W3        30.24S
ALLIANCE       CLEAR     53  52  96 CALM      30.26F
SCOTTSBLUFF    MOCLDY    61  58  90 CALM      30.27S
SIDNEY         MOCLDY    58  57  97 CALM      30.30S

...WESTERN AND NORTH CENTRAL NEBRASKA...

CITY           SKY/WX    TMP DP  RH WIND       PRES   REMARKS
VALENTINE      CLOUDY    62  59  90 W5        30.20F
AINSWORTH      CLOUDY    65  64  99 CALM      30.20F
ONEILL         CLOUDY    68  66  92 S7        30.21R
BROKEN BOW     CLOUDY    65  65 100 CALM      30.21S
IMPERIAL       CLOUDY    65  62  90 W3        30.26R
NORTH PLATTE   CLOUDY    67  65  93 CALM      30.22F
MCCOOK         CLOUDY    68  66  93 E3        30.22S FOG

...EASTERN NEBRASKA...

CITY           SKY/WX    TMP DP  RH WIND       PRES   REMARKS
NORFOLK        CLOUDY    69  65  86 NE5       30.19R
SO SIOUX CITY  MOCLDY    68  66  93 CALM      30.17R
TEKAMAH        PTCLDY    66  65  96 NE5       30.16S
COLUMBUS       CLOUDY    68  61  77 W3        30.18S
ALBION         PTCLDY    67  65  94 CALM      30.20S
OMAHA EPPLEY   CLOUDY    70  67  90 CALM      30.16R
OFFUTT AFB     MOCLDY    68  68 100 NE3       30.15R
MILLARD        MOCLDY    70  69  96 CALM      30.16R
LINCOLN        MOCLDY    69  68  96 W3        30.15F
NEBRASKA CITY  CLOUDY    68  68 100 S5        30.16R
BEATRICE       PTCLDY    66  66  99 SW5       30.17S FOG
FALLS CITY     MOCLDY    70  69  97 SE3       30.14F

...NORTHERN KANSAS...

CITY           SKY/WX    TMP DP  RH WIND       PRES   REMARKS
GOODLAND       PTCLDY    62  60  93 S6        30.26S
HILL CITY      MOCLDY    67  65  93 CALM      30.21S
NORTON         PTSUNNY   66  63  88 CALM      30.21R
SMITH CENTER   MOCLDY    64  64 100 CALM      30.20F
HAYS           MOCLDY    66  59  77 NE6       30.20S
RUSSELL        CLOUDY    68  67  96 N6        30.18F FOG
CONCORDIA      HVY RAIN  68  67  96 NW5       30.20R FOG
SALINA         MOCLDY    72  70  93 N5        30.16S
TOPEKA         CLOUDY    72  68  87 E6        30.15S



USA.gov is the U.S. government's official web portal to all federal, state and local government web resources and services.